Weather History for MMVR - May, 2013

Change the Weather History Date:

Thursday, May 2, 2013

  Actual Average Record
Temperature  
Mean Temperature 81 °F -  
Max Temperature 87 °F 89 °F 98 °F (2002)
Min Temperature 75 °F 73 °F 68 °F (2014)
Cooling Degree Days 16    
Growing Degree Days 31 (Base 50)    
Moisture  
Dew Point 72 °F    
Average Humidity 75    
Maximum Humidity 94    
Minimum Humidity 49    
Precipitation  
Precipitation 0.00 in - - ()
Sea Level Pressure  
Sea Level Pressure 29.87 in    
Wind  
Wind Speed 7 mph ()    
Max Wind Speed 23 mph    
Max Gust Speed 25 mph    
Visibility 5.0 miles    
Events      
Averages and records for this station are not official NWS values.
T = Trace of Precipitation, MM = Missing Value Source: Averaged Metar Reports

Daily Weather History Graph

Daily Weather History Graph

Search for Another Location

Airport or City:

Trip Planner

Search our weather history database for the weather conditions in past years. The results will help you decide how hot, cold, wet, or windy it might be!

Date:

Astronomy

May. 02, 2013 Rise Set
Actual Time 6:55 AM CDT 7:47 PM CDT
Civil Twilight 6:32 AM CDT 8:10 PM CDT
Nautical Twilight 6:05 AM CDT 8:37 PM CDT
Astronomical Twilight 5:38 AM CDT 9:05 PM CDT
Moon 1:44 AM CDT (5/2) 1:34 PM CDT (5/2)
Length of Visible Light 13h 37m
Length of Day
12h 51m
Waning Gibbous, 47% of the Moon is Illuminated
May 2
Waning Gibbous
May 9
New
May 17
First Quarter
May 24
Full
May 31
Last Quarter

Hourly Weather History & Observations

Time (CDT) Temp. Heat Index Dew Point Humidity Pressure Visibility Wind Dir Wind Speed Gust Speed Precip Events Conditions
5:03 AM 77.0 °F - 73.4 °F 89% 29.82 in 6.0 mi Calm Calm - N/A   Mostly Cloudy
5:57 AM 75.2 °F - 73.4 °F 94% 29.83 in 5.0 mi North 3.5 mph - N/A   Mostly Cloudy
6:53 AM 75.2 °F - 73.4 °F 94% 29.83 in 3.0 mi NW 3.5 mph - N/A   Haze
7:52 AM 75.2 °F - 73.4 °F 94% 29.87 in 3.0 mi WNW 3.5 mph - N/A   Overcast
8:49 AM 77.0 °F - 73.4 °F 89% 29.88 in 4.0 mi Calm Calm - N/A   Mostly Cloudy
9:45 AM 80.6 °F 86.2 °F 75.2 °F 84% 29.88 in 5.0 mi Calm Calm - N/A   Partly Cloudy
10:45 AM 86.0 °F 89.4 °F 68.0 °F 55% 29.89 in 5.0 mi SSW 2.3 mph - N/A   Partly Cloudy
11:45 AM 87.8 °F 90.4 °F 66.2 °F 49% 29.87 in 5.0 mi ENE 4.6 mph - N/A   Partly Cloudy
12:43 PM 87.8 °F 93.8 °F 71.6 °F 58% 29.86 in 5.0 mi NE 13.8 mph - N/A   Partly Cloudy
1:44 PM 86.0 °F 90.4 °F 69.8 °F 58% 29.85 in 5.0 mi NNE 15.0 mph - N/A   Scattered Clouds
2:46 PM 86.0 °F 90.4 °F 69.8 °F 58% 29.84 in 5.0 mi NNE 23.0 mph - N/A   Scattered Clouds
3:43 PM 86.0 °F 90.4 °F 69.8 °F 58% 29.83 in 5.0 mi NNE 18.4 mph - N/A   Scattered Clouds
4:47 PM 84.2 °F 89.6 °F 71.6 °F 66% 29.83 in 5.0 mi NE 18.4 mph - N/A   Scattered Clouds
5:42 PM 84.2 °F 89.6 °F 71.6 °F 66% 29.83 in 5.0 mi NE 18.4 mph - N/A   Scattered Clouds
6:43 PM 80.6 °F 85.4 °F 73.4 °F 79% 29.85 in 5.0 mi NE 17.3 mph - N/A   Scattered Clouds
7:42 PM 78.8 °F - 73.4 °F 83% 29.88 in 5.0 mi NNE 13.8 mph 25.3 mph N/A   Scattered Clouds
8:48 PM 78.8 °F - 73.4 °F 83% 29.92 in 5.0 mi NNE 13.8 mph 25.3 mph N/A   Mostly Cloudy
9:48 PM 78.8 °F - 73.4 °F 83% 29.93 in 6.0 mi NNE 16.1 mph - N/A   Mostly Cloudy
10:46 PM 78.8 °F - 73.4 °F 83% 29.98 in 6.0 mi NNE 13.8 mph - N/A   Overcast
11:45 PM 78.8 °F - 73.4 °F 83% 30.00 in 6.0 mi NNE 13.8 mph - N/A   Overcast